Location: Loup Canal
(41.4930°N, 97.5670°W)
Time: 20:50:50
(UTC-05:00)

Daily predictions for brighter satellites

Satellite Brightness Start Highest point End
(mag) Time Altitude Azimuth Time Altitude Azimuth Time Altitude Azimuth
Cosmos 2298 Rocket 4.3 20:22:56 10° N 20:28:08 52° ENE 20:33:19 10° SE
Cosmos 1934 Rocket 4.1 20:25:14 10° S 20:31:23 86° W 20:37:42 10° N
ERS-1 Rocket 4.5 20:30:07 10° ESE 20:33:31 19° ENE 20:36:55 10° NNE
CZ-2D R/B 3.8 20:32:34 10° SE 20:36:11 39° ENE 20:39:50 10° N
EO 1 Delta rocket 4.4 20:31:32 10° NNE 20:36:16 48° E 20:41:53 10° S
Cosmos 2297 Rocket 2.5 20:35:01 10° NNW 20:40:41 75° WSW 20:46:19 10° SSE
Resurs 01 Rocket 2.1 20:36:37 10° S 20:41:01 67° WSW 20:45:28 10° NNW
Cosmos 1975 2.9 20:37:11 10° S 20:41:14 62° E 20:45:18 10° NNE
Lacrosse 5 rocket 3.2 20:38:33 10° WNW 20:41:33 23° SW 20:44:29 10° S
Cosmos 1763 Rocket 4.3 20:40:28 10° SSE 20:44:43 27° E 20:48:57 10° NE
Cosmos 1153 Rocket 4.5 20:42:03 10° S 20:48:06 62° E 20:54:10 10° NNE
FengYun 1-2 T 4.4 20:44:28 10° SSE 20:50:06 84° WSW 20:55:44 10° NNW
Cosmos 1515 3.7 20:46:26 10° N 20:50:14 58° E 20:54:00 10° SSE
Cosmos 2150 Rocket 3.9 20:47:32 10° NNW 20:52:43 74° ENE 20:57:53 10° SSE
Cosmos 2084 4.2 20:52:05 10° NW 20:56:04 51° WSW 21:00:14 10° SSE
BREEZE-M DEB (TANK) 3.0 20:55:07 10° NW 20:56:58 26° NNE 20:59:21 12° E
Cosmos 1825 Rocket 4.4 20:54:17 10° NNE 20:58:15 31° ENE 21:01:32 13° SE
Cosmos 1898 Rocket 3.5 20:54:36 10° NNW 20:59:56 90° WSW 21:05:10 10° SSE
Cosmos 1802 Rocket 4.4 21:01:06 10° SSE 21:07:06 44° E 21:13:08 10° NNE
Cosmos 468 Rocket 4.0 21:02:09 10° SSW 21:07:16 86° WNW 21:12:27 10° NNE
Cosmos 2016 Rocket 4.5 21:03:35 10° SSE 21:09:07 37° E 21:14:46 10° NNE
Cosmos 841 Rocket 3.8 21:05:55 10° S 21:10:49 42° ESE 21:15:43 10° NNE
Cosmos 1953 Rocket 4.4 21:07:13 10° NNE 21:11:16 32° ENE 21:13:39 20° SE
Cosmos 1743 3.0 21:08:21 10° SSE 21:12:07 47° E 21:15:54 10° NNE
Cosmos 1697 Rocket 2.9 21:07:19 10° SSW 21:12:57 76° WNW 21:18:38 10° NNE
H-2A R/B 3.5 21:12:09 17° E 21:13:18 19° ENE 21:16:16 10° NNE
Cosmos 1626 Rocket 4.4 21:10:54 10° NNW 21:15:10 51° W 21:19:22 10° S
CZ-4B DEB 4.3 21:12:33 10° SSW 21:15:38 37° W 21:18:44 10° NNW
Cosmos 2173 Rocket 4.0 21:14:19 10° S 21:20:36 65° E 21:26:50 10° NNE
Cosmos 2098 Rocket 4.5 21:14:52 10° SSE 21:20:43 34° E 21:25:36 10° NNE
Cosmos 1814 Rocket 4.2 21:17:05 10° SSW 21:22:25 77° WNW 21:27:44 10° NNE
Cosmos 1066 Rocket 4.3 21:17:25 10° N 21:23:10 84° W 21:28:59 10° S
Cosmos 1939 Rocket 3.5 21:22:25 25° ESE 21:24:14 39° ENE 21:28:08 10° N
Lacrosse 5 2.7 21:21:27 10° NW 21:26:18 47° SW 21:30:12 15° SSE
USA 186 2.4 21:24:29 10° S 21:27:20 46° W 21:30:00 10° NNW
Cosmos 967 Rocket 4.4 21:21:00 10° NNW 21:27:23 81° ENE 21:31:51 20° SE
SJ-11-01 4.3 21:24:29 19° SSE 21:27:44 61° ENE 21:32:22 10° N
SL-16 R/B 2.8 21:24:05 10° SSE 21:29:02 32° ESE 21:34:01 10° NE
BREEZE-M TANK 3.3 21:17:26 10° WNW 21:29:13 89° SSW 21:31:15 29° ESE
Cosmos 1758 Rocket 3.9 21:25:15 10° N 21:29:23 42° ENE 21:30:55 30° SE
BREEZE-M DEB (TANK) 4.1 21:30:25 10° NW 21:34:02 61° NNE 21:40:19 22° ESE
Iridium 4 Rocket 4.0 21:29:49 10° N 21:34:33 54° W 21:38:52 10° SSW
SPOT 5 3.7 21:36:37 28° E 21:37:51 33° ENE 21:42:03 10° N
Cosmos 1980 Rocket 2.3 21:32:14 10° SSW 21:37:54 79° WNW 21:43:39 10° NNE
YAOGAN 11 4.0 21:35:47 23° SSE 21:38:35 79° ENE 21:43:02 10° N
Cosmos 2100 Rocket 4.1 21:34:38 10° S 21:40:54 81° W 21:47:09 10° N
YAOGAN 6 4.2 21:42:51 22° NE 21:42:51 22° NE 21:45:17 10° NNE
ALOS 3.9 21:38:11 10° SSW 21:42:25 34° W 21:46:40 10° NNW
H-2A R/B 4.4 21:38:57 10° SSW 21:42:30 33° W 21:46:07 10° NNW
deb Chang Zheng 4 3.9 21:43:30 10° NNE 21:47:44 42° E 21:47:57 41° ESE
CZ-4 DEB 2.8 21:47:38 49° SSW 21:48:18 71° WSW 21:51:27 10° NNW
Cosmos 1666 2.6 21:48:55 56° SE 21:49:20 60° E 21:53:06 10° NNE
RESURS DK-1 4.1 21:46:46 10° NW 21:50:21 29° WSW 21:53:33 12° SSW
Tiangong 1 2.9 21:50:47 10° W 21:53:02 22° SW 21:53:02 22° SW
Cosmos 1842 3.1 21:49:58 10° N 21:53:50 64° E 21:54:09 61° ESE
Envisat 2.9 21:52:52 33° SSE 21:55:13 80° ENE 22:00:19 10° N
Tsikada Rocket 4.1 21:49:31 10° N 21:55:51 57° E 21:58:25 35° SE
OAO 2 Rocket 4.4 21:51:48 10° WSW 21:56:04 28° SSW 21:56:55 27° S
Cosmos 1606 Rocket 3.8 21:54:28 10° SSW 21:58:50 68° W 22:03:17 10° N
Cosmos 2061 Rocket 4.4 21:54:28 10° SSW 22:00:42 63° W 22:06:54 10° N
Cosmos 2263 Rocket 2.8 21:55:56 10° N 22:01:05 37° ENE 22:02:03 34° E
Cosmos 2058 Rocket 3.0 21:59:23 36° S 22:01:13 80° E 22:05:44 10° N
Cosmos 1459 Rocket 4.5 21:55:20 10° SSW 22:01:18 60° W 22:07:22 10° N
Cosmos 1340 3.7 22:00:54 10° NNW 22:04:31 43° W 22:06:07 27° SSW
Cosmos 1725 Rocket 3.9 22:07:38 23° S 22:11:39 79° E 22:17:55 10° N
ERS-1 Rocket 3.5 22:09:00 24° S 22:11:51 55° W 22:16:47 10° NNW
Cosmos 2322 Rocket 2.0 22:07:47 10° SSW 22:13:23 81° ESE 22:19:02 10° NNE
MetOp-A 4.1 22:12:35 54° SE 22:13:38 68° ENE 22:18:57 10° N
BREEZE-M DEB (TANK) 3.7 22:01:53 10° WSW 22:15:15 79° NNW 22:17:26 33° ENE
Meteor 2-9 Rocket 4.4 22:24:13 20° SSW 22:28:05 66° W 22:33:27 10° N
Cosmos 2233 Rocket 3.9 22:30:38 61° SE 22:31:32 70° E 22:37:46 10° NNE
SL-19 R/B 4.3 22:26:54 10° NNE 22:31:25 54° ENE 22:31:25 54° ENE
H-2A R/B 3.2 22:35:08 28° NE 22:35:08 28° NE 22:38:17 10° N
Cosmos 783 Rocket 4.4 22:34:31 74° SSW 22:35:02 90° S 22:40:21 10° NNE
Meteor 2-5 Rocket 3.9 22:34:13 10° N 22:39:48 59° ENE 22:39:48 59° ENE
Cosmos 405 Rocket 4.2 22:37:40 10° N 22:39:45 31° NNW 22:39:45 31° NNW
USA 215 4.3 22:39:52 27° ENE 22:42:22 36° NNE 22:48:10 10° NW
ASTEX 1 4.1 22:38:33 10° N 22:43:25 53° W 22:44:47 40° SW
Cosmos 2228 3.9 22:45:13 46° WNW 22:45:13 46° WNW 22:49:21 10° N
Cosmos 1125 Rocket 4.2 22:43:12 10° NNW 22:48:09 45° WSW 22:48:48 43° SW
H-2A R/B 3.3 22:49:17 35° W 22:49:17 35° W 22:52:55 10° NNW
Cosmos 540 Rocket 3.9 22:51:50 50° WSW 22:52:48 59° WNW 22:57:53 10° NNE
SPOT 1/Viking Rocket 3.6 22:53:57 74° NW 22:53:57 74° NW 22:58:45 10° NNW
Cosmos 2278 Rocket 4.3 22:54:13 10° NNE 22:57:01 14° NE 22:57:01 14° NE
Cosmos 371 Rocket 4.2 22:59:31 44° N 22:59:31 44° N 23:02:58 10° NNE
ARGOS 3.3 23:01:56 70° NW 23:01:56 70° NW 23:06:52 10° NNW
Cosmos 1844 Rocket 4.1 23:06:37 10° N 23:10:21 28° NNE 23:10:21 28° NNE
SL-16 R/B 3.5 23:07:48 10° SW 23:13:02 37° WNW 23:18:18 10° N
Cosmos 2360 Rocket 3.2 23:24:17 41° NNE 23:24:17 41° NNE 23:27:56 10° NNE
Cosmos 1464 Rocket 4.4 23:23:41 57° NNE 23:23:41 57° NNE 23:28:40 10° N
Terra 3.4 23:25:59 31° N 23:25:59 31° N 23:28:28 10° N
BREEZE-M DEB (TANK) 4.2 23:16:05 10° WSW 23:25:59 67° WNW 23:25:59 67° WNW
Cosmos 2263 Rocket 3.7 23:40:02 10° NW 23:43:45 29° W 23:43:45 29° W
